Regional Weather Roundup
Issued by NWS

Home | Current Version | Previous Version | Text Only | Print | Product List | Glossary Off
Versions: 1 2 3 4 5 6 7 8 9 10 11 12 13 14 15 16 17 18 19 20 21 22 23 24 25 26 27 28 29 30 31 32 33 34 35 36 37 38 39 40 41 42 43 44 45 46 47 48 49 50

000
ASUS43 KFSD 300402
RWRSD

WEATHER ROUNDUP FOR SOUTH DAKOTA
NATIONAL WEATHER SERVICE SIOUX FALLS SD
1100 PM CDT MON SEP 29 2014

NOTE: "FAIR" INDICATES FEW OR NO CLOUDS BELOW 12,000 FEET WITH NO
SIGNIFICANT WEATHER AND/OR OBSTRUCTIONS TO VISIBILITY.


SDZ001>005-009-010-012>017-300500-
NORTHWEST AND NORTH CENTRAL SOUTH DAKOTA

CITY           SKY/WX    TMP DP  RH WIND       PRES   REMARKS
BUFFALO          N/A     53  52  96 E9        29.81F
FAITH            N/A     55  53  93 E13       29.88F
MOBRIDGE       MOCLDY    55  50  83 E6        29.90F
$$

SDZ012>016-024>037-041>051-057-063-072>074-300500-
SOUTHWEST AND SOUTH CENTRAL SOUTH DAKOTA

CITY           SKY/WX    TMP DP  RH WIND       PRES   REMARKS
RAPID CTY ARPT RAIN      53  53 100 CALM      29.86F FOG
PIERRE         CLOUDY    63  56  78 E18       29.85F
CUSTER         RAIN      51  50  96 NE3       29.89F FOG
ELLSWORTH AFB  RAIN      53  53 100 W5        29.86F VSB 3/4
PHILIP         LGT RAIN  60  59  96 NE14      29.82F
PINE RIDGE     TSTM      57  56  96 NE8       29.78F FOG
WINNER         CLOUDY    65  60  84 E17       29.85F
$$

SDZ004>011-016>023-039-040-300500-
NORTHEAST SOUTH DAKOTA

CITY           SKY/WX    TMP DP  RH WIND       PRES   REMARKS
ABERDEEN       CLOUDY    54  50  86 E8        29.99S
WATERTOWN      PTCLDY    51  46  83 E8G22     30.02S
SISSETON         N/A     51  47  86 SE9       30.03F
$$

SDZ017-020-022-023-036>040-048>070-300500-
SOUTHEAST SOUTH DAKOTA

CITY           SKY/WX    TMP DP  RH WIND       PRES   REMARKS
SIOUX FALLS    PTCLDY    56  51  84 E12       30.00R
HURON          PTCLDY    57  50  77 E14       29.95R
CHAMBERLAIN    PTCLDY    60  56  88 SE14G20   29.89F
MITCHELL       CLEAR     61  55  81 E13       29.95R
YANKTON        PTCLDY    61  57  88 E13       29.96S
$$

ABBREVIATIONS USED IN REMARKS
   TC - TEMPERATURE IN CELSIUS
  WCI - WIND CHILL INDEX
   HX - HEAT INDEX
  VSB - VISIBILITY




USA.gov is the U.S. government's official web portal to all federal, state and local government web resources and services.